Location: Alexander
(41.3564°N, 81.5960°W)
Time: 15:15:47
(UTC+00:00)

Okean-O - Pass Details

Date: 24 January 2021
Orbit: 638 x 641 km, 98.2° (Epoch: 01 March)

Event Time Altitude Azimuth Distance (km) Brightness Sun altitude
Rises 22:56:40 0° 123° (ESE) 2,937 5.7 -4.9°
Reaches altitude 10° 22:59:31 10° 103° (ESE) 2,033 4.7 -5.4°
Maximum altitude 23:02:19 17° 64° (ENE) 1,634 4.1 -5.9°
Drops below altitude 10° 23:05:08 10° 25° (NNE) 2,042 4.8 -6.4°
Sets 23:08:00 0° 5° (N) 2,956 5.8 -6.9°
